sat.trackr.live / text

‹ back to catalog

HULIANWANG DIGUI-118

NORAD 66957 · 2025-287E

PAYLOAD ACTIVE UNKNOWN

§ Identity

Operator
Country
PRC
Launch date
2025-12-08
Launch site
TAISC
Launch vehicle
Mass (kg)
RCS (m²)

External: N2YO · Heavens-Above · Gunter

§ Orbital elements

Epoch: 2026-05-24T22:02:21.782688Z

Period
108.73 min
Inclination
86.4905°
Eccentricity
0.0001542
Mean motion
13.24411523 rev/d
Perigee alt
1,166.8 km
Apogee alt
1,169.1 km
Semi-major
7,546.1 km
B*
5.0463e-5
RAAN
290.1947°
Arg perigee
110.4973°
Mean anomaly
249.6327°
Rev number
2,226

§ Raw data

HULIANWANG DIGUI-1181 66957U 25287E   26144.91830767  .00000036  00000+0  50463-4 0  99952 66957  86.4905 290.1947 0001542 110.4973 249.6327 13.24411523 22267

JSON: /api/v1/satellites/66957 · /tle

For live sub-satellite position, see the globe view (requires WebGL).

§ Visibility from observer

Set your observer location to see the next 7 days of passes ≥ 10°. The values pass through the URL so the page stays shareable.

No JS? Fill the form by hand. The geolocation button needs JavaScript.